�������l�o���
Date,Time,MP-1(��Sv/h),MP-2(��Sv/h),MP-3(��Sv/h),MP-4(��Sv/h),MP-5(��Sv/h),MP-6(��Sv/h),MP-7(��Sv/h),MP-8(��Sv/h),����,����(m/s),���J
2023/01/19,00:00,0.558,0.803,0.507,1.033,0.714,0.318,0.579,0.551,�k�k��,8.6,��
2023/01/19,00:10,0.560,0.805,0.507,1.034,0.713,0.317,0.579,0.551,�k�k��,8.3,��
2023/01/19,00:20,0.556,0.805,0.505,1.032,0.712,0.317,0.580,0.550,�k�k��,8.0,��
2023/01/19,00:30,0.556,0.804,0.506,1.033,0.714,0.317,0.579,0.552,�k�k��,7.1,��
2023/01/19,00:40,0.557,0.804,0.505,1.034,0.713,0.319,0.579,0.550,�k�k��,6.1,��
2023/01/19,00:50,0.557,0.805,0.506,1.035,0.714,0.318,0.579,0.552,�k�k��,5.5,��
2023/01/19,01:00,0.556,0.803,0.506,1.036,0.712,0.318,0.579,0.550,�k��,3.2,��
2023/01/19,01:10,0.557,0.805,0.507,1.033,0.714,0.318,0.580,0.550,�k�k��,3.1,��
2023/01/19,01:20,0.555,0.805,0.507,1.033,0.712,0.319,0.577,0.551,�k�k��,4.2,��
2023/01/19,01:30,0.557,0.807,0.506,1.035,0.714,0.319,0.578,0.549,�k�k��,3.6,��
2023/01/19,01:40,0.554,0.805,0.505,1.034,0.713,0.319,0.579,0.550,�k�k��,4.5,��
2023/01/19,01:50,0.555,0.805,0.507,1.033,0.714,0.319,0.580,0.550,�k�k��,4.5,��
2023/01/19,02:00,0.558,0.807,0.504,1.034,0.714,0.319,0.579,0.551,�k�k��,5.8,��
2023/01/19,02:10,0.557,0.803,0.507,1.035,0.713,0.318,0.579,0.549,�k�k��,6.9,��
2023/01/19,02:20,0.558,0.804,0.508,1.034,0.714,0.318,0.579,0.550,�k�k��,7.1,��
2023/01/19,02:30,0.556,0.804,0.505,1.033,0.713,0.318,0.579,0.550,�k�k��,6.3,��
2023/01/19,02:40,0.557,0.806,0.505,1.034,0.713,0.319,0.578,0.550,�k�k��,6.6,��
2023/01/19,02:50,0.557,0.803,0.505,1.033,0.712,0.318,0.580,0.550,�k�k��,6.3,��
2023/01/19,03:00,0.555,0.805,0.505,1.032,0.712,0.317,0.580,0.551,�k�k��,6.0,��
2023/01/19,03:10,0.556,0.804,0.506,1.033,0.712,0.319,0.578,0.550,�k�k��,7.5,��
2023/01/19,03:20,0.556,0.804,0.505,1.034,0.712,0.320,0.579,0.550,�k�k��,6.9,��
2023/01/19,03:30,0.557,0.806,0.505,1.033,0.713,0.318,0.579,0.551,�k�k��,5.8,��
2023/01/19,03:40,0.556,0.802,0.505,1.034,0.713,0.318,0.578,0.552,�k��,4.4,��
2023/01/19,03:50,0.555,0.803,0.506,1.033,0.712,0.318,0.579,0.551,�k��,4.9,��
2023/01/19,04:00,0.557,0.804,0.505,1.033,0.711,0.319,0.579,0.550,�k�k��,7.2,��
2023/01/19,04:10,0.556,0.802,0.507,1.034,0.713,0.318,0.579,0.550,�k�k��,5.8,��
2023/01/19,04:20,0.556,0.804,0.505,1.033,0.712,0.318,0.580,0.551,�k��,6.0,��
2023/01/19,04:30,0.556,0.803,0.506,1.033,0.713,0.319,0.576,0.551,�k��,5.6,��
2023/01/19,04:40,0.555,0.803,0.504,1.030,0.711,0.319,0.578,0.551,�k��,4.7,��
2023/01/19,04:50,0.554,0.803,0.506,1.031,0.712,0.319,0.578,0.550,�k��,5.8,��
2023/01/19,05:00,0.555,0.805,0.504,1.035,0.711,0.319,0.579,0.548,�k��,6.6,��
2023/01/19,05:10,0.556,0.803,0.504,1.034,0.710,0.317,0.579,0.552,�k��,5.8,��
2023/01/19,05:20,0.556,0.802,0.506,1.034,0.711,0.319,0.580,0.550,�k��,6.4,��
2023/01/19,05:30,0.556,0.802,0.506,1.035,0.709,0.319,0.578,0.551,�k��,6.4,��
2023/01/19,05:40,0.555,0.803,0.505,1.035,0.710,0.319,0.579,0.551,�k�k��,6.3,��
2023/01/19,05:50,0.556,0.803,0.506,1.033,0.711,0.318,0.579,0.549,�k��,5.2,��
2023/01/19,06:00,0.555,0.802,0.504,1.033,0.711,0.317,0.578,0.551,�k��,5.8,��
2023/01/19,06:10,0.554,0.804,0.505,1.033,0.712,0.318,0.579,0.550,�k��,6.1,��
2023/01/19,06:20,0.554,0.803,0.505,1.034,0.713,0.316,0.578,0.551,�k��,5.5,��
2023/01/19,06:30,0.557,0.802,0.506,1.035,0.712,0.317,0.579,0.549,�k��,6.4,��
2023/01/19,06:40,0.554,0.803,0.506,1.033,0.712,0.317,0.579,0.551,�k��,6.6,��
2023/01/19,06:50,0.556,0.804,0.506,1.032,0.712,0.317,0.579,0.550,�k��,6.7,��
2023/01/19,07:00,0.555,0.803,0.505,1.032,0.712,0.318,0.579,0.551,�k��,6.4,��
2023/01/19,07:10,0.555,0.801,0.504,1.033,0.710,0.319,0.579,0.549,�k��,6.6,��
2023/01/19,07:20,0.554,0.802,0.504,1.031,0.712,0.318,0.579,0.550,�k��,6.4,��
2023/01/19,07:30,0.555,0.802,0.504,1.034,0.710,0.318,0.579,0.551,�k��,5.8,��
2023/01/19,07:40,0.555,0.805,0.506,1.034,0.710,0.317,0.581,0.550,�k��,6.3,��
2023/01/19,07:50,0.557,0.802,0.506,1.033,0.711,0.318,0.579,0.552,�k��,6.4,��
2023/01/19,08:00,0.556,0.803,0.506,1.034,0.709,0.318,0.580,0.550,�k��,6.4,��
2023/01/19,08:10,0.556,0.803,0.505,1.035,0.710,0.319,0.581,0.551,�k��,5.5,��
2023/01/19,08:20,0.557,0.802,0.505,1.033,0.711,0.319,0.581,0.550,�k��,4.9,��
2023/01/19,08:30,0.556,0.801,0.505,1.033,0.709,0.319,0.580,0.552,�k��,5.5,��
2023/01/19,08:40,0.556,0.800,0.505,1.032,0.711,0.318,0.582,0.551,�k��,5.6,��
2023/01/19,08:50,0.558,0.803,0.505,1.034,0.712,0.319,0.581,0.554,�k��,5.5,��
2023/01/19,09:00,0.557,0.803,0.504,1.034,0.710,0.318,0.581,0.552,�k��,4.9,��
2023/01/19,09:10,0.556,0.803,0.504,1.034,0.712,0.318,0.580,0.551,�k�k��,5.2,��
2023/01/19,09:20,0.556,0.801,0.504,1.035,0.711,0.319,0.580,0.551,�k�k��,5.3,��
2023/01/19,09:30,0.558,0.797,0.504,1.033,0.710,0.317,0.580,0.551,�k�k��,4.2,��
2023/01/19,09:40,0.557,0.792,0.506,1.033,0.711,0.318,0.581,0.550,�k�k��,4.1,��
2023/01/19,09:50,0.557,0.795,0.507,1.032,0.711,0.319,0.578,0.550,�k,4.1,��
2023/01/19,10:00,0.558,0.796,0.505,1.034,0.712,0.319,0.578,0.552,�k�k��,3.6,��
2023/01/19,10:10,0.558,0.793,0.507,1.032,0.712,0.320,0.579,0.551,�k�k��,4.1,��
2023/01/19,10:20,0.556,0.789,0.506,1.035,0.709,0.319,0.578,0.552,�k�k��,3.4,��
2023/01/19,10:30,0.556,0.796,0.507,1.033,0.712,0.316,0.578,0.552,�k,4.4,��
2023/01/19,10:40,0.556,0.793,0.506,1.034,0.713,0.319,0.579,0.551,�k,3.5,��
2023/01/19,10:50,0.555,0.788,0.507,1.037,0.713,0.318,0.578,0.552,�k,3.9,��
2023/01/19,11:00,0.556,0.790,0.507,1.034,0.713,0.319,0.577,0.553,�k,4.9,��
2023/01/19,11:10,0.558,0.794,0.506,1.034,0.714,0.320,0.577,0.552,�k�k��,4.1,��
2023/01/19,11:20,0.558,0.794,0.507,1.035,0.713,0.318,0.577,0.552,�k�k��,3.9,��
2023/01/19,11:30,0.558,0.797,0.506,1.035,0.713,0.318,0.579,0.551,�k�k��,5.0,��
2023/01/19,11:40,0.550,0.801,0.506,1.033,0.715,0.319,0.578,0.553,�k�k��,4.1,��
2023/01/19,11:50,0.547,0.801,0.507,1.034,0.713,0.320,0.578,0.551,�k�k��,4.1,��
2023/01/19,12:00,0.547,0.807,0.509,1.036,0.714,0.321,0.578,0.551,�k�k��,4.2,��
2023/01/19,12:10,0.548,0.806,0.508,1.035,0.714,0.319,0.576,0.550,�k�k��,4.4,��
2023/01/19,12:20,0.549,0.803,0.506,1.033,0.715,0.318,0.579,0.551,�k�k��,4.9,��
2023/01/19,12:30,0.549,0.805,0.507,1.032,0.713,0.319,0.578,0.552,�k�k��,4.9,��
2023/01/19,12:40,0.547,0.805,0.507,1.034,0.712,0.319,0.580,0.552,�k�k��,5.5,��
2023/01/19,12:50,0.549,0.804,0.507,1.034,0.714,0.319,0.579,0.553,�k�k��,5.3,��
2023/01/19,13:00,0.549,0.805,0.506,1.034,0.713,0.320,0.580,0.552,�k�k��,4.4,��
2023/01/19,13:10,0.541,0.806,0.508,1.037,0.713,0.319,0.580,0.552,�k�k��,4.9,��
2023/01/19,13:20,0.544,0.805,0.508,1.035,0.715,0.319,0.580,0.552,�k�k��,4.9,��
2023/01/19,13:30,0.554,0.805,0.508,1.037,0.713,0.321,0.580,0.552,�k�k��,4.1,��
2023/01/19,13:40,0.559,0.806,0.507,1.034,0.713,0.319,0.581,0.551,�k�k��,4.4,��
2023/01/19,13:50,0.558,0.804,0.509,1.035,0.715,0.319,0.580,0.550,�k�k��,4.1,��
2023/01/19,14:00,0.560,0.806,0.508,1.036,0.715,0.319,0.581,0.550,�k�k��,4.4,��
2023/01/19,14:10,0.561,0.805,0.508,1.035,0.717,0.319,0.582,0.551,�k�k��,4.6,��
2023/01/19,14:20,0.560,0.804,0.508,1.035,0.716,0.319,0.581,0.550,�k�k��,4.5,��
2023/01/19,14:30,0.560,0.806,0.509,1.036,0.717,0.319,0.582,0.551,�k�k��,4.4,��
2023/01/19,14:40,0.560,0.807,0.508,1.037,0.716,0.320,0.581,0.550,�k�k��,4.9,��
2023/01/19,14:50,0.560,0.803,0.508,1.036,0.716,0.320,0.581,0.552,�k,3.8,��
2023/01/19,15:00,0.561,0.807,0.508,1.037,0.717,0.320,0.579,0.553,�k�k��,3.3,��
2023/01/19,15:10,0.560,0.807,0.508,1.036,0.717,0.320,0.580,0.551,�k,2.6,��
2023/01/19,15:20,0.560,0.808,0.509,1.037,0.716,0.320,0.581,0.553,�k�k��,1.6,��
2023/01/19,15:30,0.560,0.806,0.510,1.037,0.717,0.320,0.581,0.551,�k��,1.8,��
2023/01/19,15:40,0.559,0.807,0.510,1.033,0.715,0.320,0.581,0.551,�k,1.8,��
2023/01/19,15:50,0.561,0.808,0.508,1.036,0.716,0.319,0.580,0.551,�k�k��,1.8,��
2023/01/19,16:00,0.560,0.807,0.508,1.034,0.715,0.319,0.580,0.553,�k,1.2,��
2023/01/19,16:10,0.559,0.808,0.509,1.034,0.716,0.320,0.579,0.552,�k�k��,1.2,��
2023/01/19,16:20,0.560,0.806,0.508,1.035,0.716,0.319,0.581,0.550,�k��,1.0,��
2023/01/19,16:30,0.558,0.807,0.510,1.034,0.718,0.320,0.581,0.551,-,CALM,��
2023/01/19,16:40,0.557,0.808,0.509,1.037,0.716,0.320,0.579,0.551,�k��,0.7,��
2023/01/19,16:50,0.560,0.809,0.508,1.036,0.716,0.319,0.579,0.551,�k��,1.4,��
2023/01/19,17:00,0.559,0.808,0.508,1.034,0.716,0.319,0.579,0.552,��,0.8,��
2023/01/19,17:10,0.559,0.807,0.510,1.033,0.714,0.321,0.578,0.550,��,1.1,��
2023/01/19,17:20,0.558,0.807,0.507,1.036,0.715,0.319,0.579,0.551,���쐼,0.8,��
2023/01/19,17:30,0.558,0.808,0.507,1.034,0.717,0.319,0.579,0.551,-,CALM,��
2023/01/19,17:40,0.557,0.809,0.509,1.034,0.715,0.318,0.579,0.550,-,CALM,��
2023/01/19,17:50,0.557,0.808,0.506,1.034,0.715,0.320,0.577,0.550,��쐼,0.5,��
2023/01/19,18:00,0.557,0.807,0.508,1.034,0.716,0.320,0.580,0.551,��쐼,0.5,��
2023/01/19,18:10,0.559,0.808,0.508,1.036,0.716,0.318,0.579,0.552,-,CALM,��
2023/01/19,18:20,0.559,0.808,0.508,1.034,0.715,0.320,0.578,0.551,��쐼,1.2,��
2023/01/19,18:30,0.558,0.809,0.509,1.036,0.716,0.320,0.580,0.552,�쐼,2.4,��
2023/01/19,18:40,0.558,0.808,0.508,1.037,0.715,0.321,0.578,0.551,�쐼,3.1,��
2023/01/19,18:50,0.558,0.810,0.507,1.033,0.715,0.319,0.579,0.551,��쐼,3.4,��
2023/01/19,19:00,0.558,0.808,0.507,1.034,0.714,0.318,0.579,0.551,��쐼,3.8,��
2023/01/19,19:10,0.557,0.808,0.508,1.036,0.714,0.320,0.579,0.552,��쐼,3.1,��
2023/01/19,19:20,0.559,0.808,0.508,1.034,0.715,0.319,0.577,0.549,��쐼,2.9,��
2023/01/19,19:30,0.557,0.807,0.506,1.036,0.715,0.319,0.578,0.551,��쐼,2.4,��
2023/01/19,19:40,0.558,0.808,0.507,1.035,0.715,0.320,0.579,0.551,��,3.1,��
2023/01/19,19:50,0.558,0.808,0.507,1.033,0.715,0.319,0.579,0.551,��,3.5,��
2023/01/19,20:00,0.558,0.809,0.508,1.036,0.715,0.320,0.578,0.552,��,4.4,��
2023/01/19,20:10,0.560,0.809,0.509,1.035,0.716,0.318,0.578,0.550,��,4.5,��
2023/01/19,20:20,0.558,0.806,0.509,1.035,0.715,0.319,0.578,0.552,��,5.2,��
2023/01/19,20:30,0.559,0.808,0.508,1.036,0.714,0.320,0.577,0.551,��,5.2,��
2023/01/19,20:40,0.557,0.806,0.508,1.036,0.715,0.320,0.578,0.552,��,5.5,��
2023/01/19,20:50,0.558,0.808,0.507,1.037,0.713,0.320,0.579,0.549,��,6.0,��
2023/01/19,21:00,0.558,0.809,0.507,1.035,0.716,0.320,0.579,0.551,��,5.8,��
2023/01/19,21:10,0.558,0.806,0.507,1.034,0.716,0.319,0.579,0.552,��,6.0,��
2023/01/19,21:20,0.558,0.807,0.510,1.035,0.715,0.320,0.578,0.551,��쐼,6.6,��
2023/01/19,21:30,0.558,0.808,0.507,1.033,0.716,0.319,0.580,0.553,��쐼,6.7,��
2023/01/19,21:40,0.558,0.805,0.506,1.035,0.715,0.320,0.579,0.552,��쐼,6.0,��
2023/01/19,21:50,0.558,0.807,0.508,1.036,0.715,0.320,0.579,0.551,��쐼,5.6,��
2023/01/19,22:00,0.558,0.809,0.508,1.034,0.714,0.318,0.579,0.552,��쐼,5.2,��
2023/01/19,22:10,0.559,0.808,0.507,1.035,0.713,0.320,0.580,0.550,��쐼,5.2,��
2023/01/19,22:20,0.559,0.806,0.510,1.034,0.716,0.319,0.579,0.551,��쐼,5.5,��
2023/01/19,22:30,0.559,0.806,0.507,1.037,0.715,0.319,0.578,0.550,��쐼,4.9,��
2023/01/19,22:40,0.559,0.808,0.509,1.035,0.715,0.320,0.578,0.550,��쐼,5.2,��
2023/01/19,22:50,0.558,0.807,0.509,1.036,0.714,0.319,0.579,0.552,��쐼,5.0,��
2023/01/19,23:00,0.557,0.807,0.508,1.035,0.714,0.320,0.578,0.552,�쐼,4.4,��
2023/01/19,23:10,0.558,0.806,0.508,1.037,0.714,0.319,0.581,0.552,��쐼,4.5,��
2023/01/19,23:20,0.559,0.808,0.508,1.035,0.716,0.320,0.579,0.553,��쐼,3.9,��
2023/01/19,23:30,0.558,0.808,0.508,1.034,0.715,0.320,0.579,0.552,��쐼,3.0,��
2023/01/19,23:40,0.558,0.807,0.508,1.035,0.714,0.319,0.579,0.551,�쐼,3.8,��
2023/01/19,23:50,0.558,0.809,0.508,1.034,0.715,0.319,0.579,0.552,��쐼,3.5,��
